CW9259 Weather Reports


Display with metric or nautical units.
time (UTC)temp
F
wind
direction
speed
MPH
gust
MPH
rain 1hr
in
rain 24hr
in
rain mn
in
humidity
%
barometer
mb
20260905051600 62 335 2.0 4.0 0.00 0.00 0.00 88 1013.6
20260905050130 62 284 2.0 4.0 0.00 0.00 0.00 89 1013.4
20260905044605 62 355 0.0 3.0 0.00 0.00 0.00 88 1013.3
20260905043139 62 336 0.0 2.0 0.00 0.00 0.00 88 1013.2
20260905041559 62 309 2.0 3.0 0.00 0.00 0.00 88 1013.3
20260905040003 62 314 1.0 3.0 0.00 0.00 0.00 88 1013.3
20260905034602 63 332 0.0 0.0 0.00 0.00 0.00 87 1013.4
20260905033132 63 332 1.0 3.0 0.00 0.00 0.00 87 1013.4
20260905031600 63 336 1.0 3.0 0.00 0.00 0.00 86 1013.5
20260905030003 63 298 2.0 3.0 0.00 0.00 0.00 87 1013.3
20260905024559 63 298 2.0 3.0 0.00 0.00 0.00 87 1013.5
20260905023125 63 295 2.0 4.0 0.00 0.00 0.00 86 1013.5
20260905021559 64 302 0.0 2.0 0.00 0.00 0.00 86 1013.6
20260905020001 64 302 0.0 2.0 0.00 0.00 0.00 86 1013.5
20260905014600 64 303 1.0 2.0 0.00 0.00 0.00 87 1013.6
20260905013123 64 303 0.0 2.0 0.00 0.00 0.00 85 1013.5
20260905011618 65 303 1.0 3.0 0.00 0.00 0.00 85 1013.5
20260905010000 65 303 0.0 3.0 0.00 0.00 0.00 85 1013.6
20260905004601 65 303 0.0 2.0 0.00 0.00 0.00 85 1013.7
20260905003135 65 303 0.0 2.0 0.00 0.00 0.00 85 1013.7
20260905001610 65 305 1.0 3.0 0.00 0.00 0.00 85 1013.9
20260905000122 66 305 0.0 2.0 0.00 0.00 0.00 84 1014.1
20260904234600 66 304 1.0 3.0 0.00 0.00 0.00 84 1014.1
20260904233129 66 304 0.0 2.0 0.00 0.00 0.00 84 1014.1
20260904231602 67 304 1.0 3.0 0.00 0.00 0.00 83 1014.2
20260904230003 68 304 0.0 3.0 0.00 0.00 0.00 82 1014.2
20260904224559 68 304 0.0 3.0 0.00 0.00 0.00 81 1014.3
20260904223122 70 328 1.0 3.0 0.00 0.00 0.00 79 1014.1
20260904221558 70 331 3.0 4.0 0.00 0.00 0.00 78 1014.2
20260904220131 70 340 3.0 4.0 0.00 0.00 0.00 79 1014.2
20260904214558 69 331 3.0 4.0 0.00 0.00 0.00 81 1014.4
20260904213123 68 304 0.0 0.0 0.00 0.00 0.00 82 1014.4
20260904211559 69 304 0.0 2.0 0.00 0.00 0.00 82 1014.4
20260904210001 69 304 0.0 2.0 0.00 0.00 0.00 81 1014.4
20260904204559 69 304 1.0 3.0 0.00 0.00 0.00 80 1014.4
20260904203142 70 304 2.0 3.0 0.00 0.00 0.00 79 1014.5
20260904201620 70 292 0.0 3.0 0.00 0.00 0.00 78 1014.6
20260904200127 70 292 0.0 2.0 0.00 0.00 0.00 78 1014.5
20260904194559 71 291 0.0 2.0 0.00 0.00 0.00 78 1014.4
20260904193132 71 291 0.0 3.0 0.00 0.00 0.00 77 1014.5
20260904191558 72 290 1.0 3.0 0.00 0.00 0.00 76 1014.3
20260904190000 73 313 0.0 1.0 0.00 0.00 0.00 75 1014.1
20260904184600 74 310 327.0 2.0 0.00 0.00 0.00 74 1013.9
20260904183128 75 327.0 255.0 0.00 0.00 0.00 72 1013.6
20260904181602 76 327.0 255.0 0.00 0.00 0.00 70 1013.6
20260904180004 78 327.0 255.0 0.00 0.00 0.00 67 1013.5
20260904174608 79 327.0 255.0 0.00 0.00 0.00 65 1013.3
20260904173126 81 327.0 255.0 0.00 0.00 0.00 64 1013.3
20260904171607 84 327.0 255.0 0.00 0.00 0.00 60 1013.4
20260904170002 88 327.0 255.0 0.00 0.00 0.00 52 1013.3
20260904164601 89 327.0 255.0 0.00 0.00 0.00 52 1013.4
20260904163130 89 327.0 255.0 0.00 0.00 0.00 47 1013.4
20260904161608 90 327.0 255.0 0.00 0.00 0.00 53 1013.6
20260904160001 90 327.0 255.0 0.00 0.00 0.00 47 1013.6
20260904154600 91 327.0 255.0 0.00 0.00 0.00 44 1013.7
20260904153123 91 327.0 255.0 0.00 0.00 0.00 44 1013.8
20260904151600 91 327.0 255.0 0.00 0.00 0.00 43 1013.9
20260904150112 91 120 1.0 9.0 0.00 0.00 0.00 44 1014.1
20260904144619 92 121 4.0 8.0 0.00 0.00 0.00 45 1014.1
20260904143129 91 126 0.0 8.0 0.00 0.00 0.00 46 1014.1
20260904141603 91 135 4.0 10.0 0.00 0.00 0.00 45 1014.3
20260904140002 91 9 2.0 6.0 0.00 0.00 0.00 44 1014.4
20260904134606 91 88 4.0 10.0 0.00 0.00 0.00 45 1014.5
20260904133123 91 72 0.0 5.0 0.00 0.00 0.00 46 1014.5
20260904131559 90 98 3.0 10.0 0.00 0.00 0.00 45 1014.6
20260904130130 90 92 4.0 8.0 0.00 0.00 0.00 47 1014.7
20260904124606 89 136 3.0 9.0 0.00 0.00 0.00 45 1015.0
20260904123143 88 185 3.0 9.0 0.00 0.00 0.00 49 1015.1
20260904121555 89 98 3.0 10.0 0.00 0.00 0.00 47 1015.2
20260904120138 89 131 7.0 11.0 0.00 0.00 0.00 47 1015.4
20260904114556 88 92 5.0 10.0 0.00 0.00 0.00 49 1015.4
20260904113129 88 236 2.0 10.0 0.00 0.00 0.00 47 1015.6
20260904111608 88 157 1.0 9.0 0.00 0.00 0.00 49 1015.6
20260904110131 88 113 4.0 8.0 0.00 0.00 0.00 46 1015.8
20260904104655 87 71 4.0 9.0 0.00 0.00 0.00 48 1016.0
20260904103122 87 183 2.0 7.0 0.00 0.00 0.00 50 1016.2
20260904101559 86 74 2.0 9.0 0.00 0.00 0.00 51 1016.4
20260904100131 86 153 4.0 8.0 0.00 0.00 0.00 51 1016.5
20260904094609 85 117 3.0 8.0 0.00 0.00 0.00 52 1016.6
20260904093139 84 113 3.0 9.0 0.00 0.00 0.00 52 1016.8
20260904091556 83 130 2.0 8.0 0.00 0.00 0.00 56 1017.0
20260904090130 82 157 2.0 7.0 0.00 0.00 0.00 56 1017.0
20260904084556 81 117 1.0 6.0 0.00 0.00 0.00 55 1016.9
20260904083134 80 143 3.0 5.0 0.00 0.00 0.00 58 1016.9
20260904081633 80 165 3.0 7.0 0.00 0.00 0.00 58 1017.0
20260904080122 79 130 2.0 4.0 0.00 0.00 0.00 60 1016.8
20260904074608 77 71 1.0 3.0 0.00 0.00 0.00 63 1016.8
20260904073132 75 31 1.0 2.0 0.00 0.00 0.00 65 1016.8
20260904071559 73 29 0.0 2.0 0.00 0.00 0.00 66 1016.8
20260904070139 71 21 0.0 2.0 0.00 0.00 0.00 69 1016.8
20260904064555 70 21 0.0 3.0 0.00 0.00 0.00 68 1016.8
20260904063129 68 29 1.0 4.0 0.00 0.00 0.00 71 1016.8
20260904061603 66 355 1.0 4.0 0.00 0.00 0.00 74 1016.6
20260904060135 65 351 1.0 4.0 0.00 0.00 0.00 78 1016.7
20260904054556 63 337 2.0 5.0 0.00 0.00 0.00 80 1016.6
20260904053121 62 336 2.0 5.0 0.00 0.00 0.00 85 1016.5